• In Uzbekistan
  • List of Countries
  • For 7 days
  • Water Temperature
  • Satellite Maps
  • Weather Map
  • Weather Widgets
  • user-avatar
    Login

    Hourly Weather Pekin

    Today, 24 January, Thursday

    Time Temperature Precipitation Wind Pressure Humidity
    00:00 +2°C° 0 mm 1 mps 766 mmHg 58%
    01:00 +1°C° 0 mm 1 mps 766 mmHg 61%
    02:00 -1°C° 0 mm 2 mps 767 mmHg 69%
    03:00 -2°C° 0 mm 2 mps 766 mmHg 73%
    04:00 -2°C° 0 mm 2 mps 766 mmHg 78%
    05:00 -3°C° 0 mm 2 mps 766 mmHg 82%
    06:00 -3°C° 0 mm 2 mps 766 mmHg 82%
    07:00 -3°C° 0 mm 2 mps 766 mmHg 83%
    08:00 -3°C° 0 mm 2 mps 766 mmHg 84%
    09:00 -2°C° 0 mm 2 mps 766 mmHg 76%
    10:00 +1°C° 0 mm 2 mps 766 mmHg 67%
    11:00 +2°C° 0 mm 2 mps 766 mmHg 59%
    12:00 +2°C° 0 mm 3 mps 766 mmHg 54%
    13:00 +3°C° 0 mm 3 mps 765 mmHg 50%
    14:00 +4°C° 0 mm 3 mps 765 mmHg 45%
    15:00 +5°C° 0 mm 2 mps 765 mmHg 46%
    16:00 +5°C° 0 mm 2 mps 765 mmHg 47%
    17:00 +4°C° 0 mm 2 mps 766 mmHg 48%
    18:00 +4°C° 0 mm 2 mps 766 mmHg 51%
    19:00 +3°C° 0 mm 2 mps 767 mmHg 54%
    20:00 +2°C° 0 mm 2 mps 768 mmHg 57%
    21:00 +2°C° 0 mm 2 mps 769 mmHg 57%
    22:00 +1°C° 0 mm 2 mps 769 mmHg 56%
    23:00 +1°C° 0 mm 2 mps 770 mmHg 56%

    Tomorrow, 25 January, Friday

    Time Temperature Precipitation Wind Pressure Humidity
    00:00 +1°C° 0 mm 2 mps 771 mmHg 54%
    01:00 -1°C° 0 mm 2 mps 772 mmHg 51%
    02:00 -1°C° 0 mm 2 mps 772 mmHg 49%
    03:00 -1°C° 0 mm 2 mps 773 mmHg 45%
    04:00 -2°C° 0 mm 2 mps 773 mmHg 41%
    05:00 -2°C° 0 mm 2 mps 773 mmHg 37%
    06:00 -3°C° 0 mm 2 mps 774 mmHg 35%
    07:00 -3°C° 0 mm 2 mps 774 mmHg 33%
    08:00 -3°C° 0 mm 2 mps 775 mmHg 31%
    09:00 -1°C° 0 mm 2 mps 775 mmHg 26%
    10:00 0°C° 0 mm 3 mps 776 mmHg 21%
    11:00 +2°C° 0 mm 3 mps 776 mmHg 16%
    12:00 +3°C° 0 mm 3 mps 776 mmHg 15%
    13:00 +3°C° 0 mm 3 mps 775 mmHg 13%
    14:00 +4°C° 0 mm 3 mps 774 mmHg 11%
    15:00 +4°C° 0 mm 2 mps 774 mmHg 12%
    16:00 +4°C° 0 mm 2 mps 775 mmHg 12%
    17:00 +5°C° 0 mm 1 mps 775 mmHg 12%
    18:00 +4°C° 0 mm 1 mps 775 mmHg 14%
    19:00 +2°C° 0 mm 1 mps 776 mmHg 16%
    20:00 +1°C° 0 mm 1 mps 776 mmHg 17%
    21:00 +1°C° 0 mm 1 mps 776 mmHg 18%
    22:00 0°C° 0 mm 1 mps 777 mmHg 19%
    23:00 0°C° 0 mm 1 mps 777 mmHg 21%

    Day after tomorrow, 26 January, Saturday

    Time Temperature Precipitation Wind Pressure Humidity
    00:00 -1°C° 0 mm 1 mps 777 mmHg 21%
    01:00 -2°C° 0 mm 0 mps 777 mmHg 22%
    02:00 -2°C° 0 mm 0 mps 777 mmHg 22%
    03:00 -3°C° 0 mm 0 mps 777 mmHg 23%
    04:00 -3°C° 0 mm 0 mps 776 mmHg 23%
    05:00 -3°C° 0 mm 0 mps 776 mmHg 23%
    06:00 -3°C° 0 mm 0 mps 776 mmHg 25%
    07:00 -3°C° 0 mm 0 mps 776 mmHg 26%
    08:00 -3°C° 0 mm 0 mps 776 mmHg 27%
    09:00 -1°C° 0 mm 1 mps 776 mmHg 26%
    10:00 +1°C° 0 mm 1 mps 776 mmHg 25%
    11:00 +2°C° 0 mm 2 mps 776 mmHg 23%
    12:00 +3°C° 0 mm 2 mps 774 mmHg 22%
    13:00 +3°C° 0 mm 2 mps 773 mmHg 21%
    14:00 +3°C° 0 mm 3 mps 772 mmHg 20%
    15:00 +4°C° 0 mm 2 mps 772 mmHg 20%
    16:00 +4°C° 0 mm 2 mps 772 mmHg 21%
    17:00 +3°C° 0 mm 2 mps 771 mmHg 22%
    18:00 +2°C° 0 mm 2 mps 771 mmHg 23%
    19:00 +1°C° 0 mm 2 mps 771 mmHg 24%
    20:00 +1°C° 0 mm 2 mps 771 mmHg 25%
    21:00 -1°C° 0 mm 2 mps 771 mmHg 26%
    22:00 -1°C° 0 mm 2 mps 770 mmHg 26%
    23:00 -2°C° 0 mm 2 mps 770 mmHg 26%

    27 January, Sunday

    Time Temperature Precipitation Wind Pressure Humidity
    00:00 -2°C° 0 mm 2 mps 770 mmHg 26%
    01:00 -1°C° 0 mm 1 mps 769 mmHg 26%
    02:00 -1°C° 0 mm 1 mps 769 mmHg 27%
    03:00 -1°C° 0 mm 1 mps 768 mmHg 27%
    04:00 -1°C° 0 mm 1 mps 768 mmHg 27%
    05:00 -2°C° 0 mm 0 mps 767 mmHg 27%
    06:00 -2°C° 0 mm 0 mps 767 mmHg 26%
    07:00 -2°C° 0 mm 0 mps 767 mmHg 26%
    08:00 -2°C° 0 mm 0 mps 767 mmHg 25%
    09:00 -1°C° 0 mm 0 mps 767 mmHg 23%
    10:00 +2°C° 0 mm 1 mps 767 mmHg 21%
    11:00 +3°C° 0 mm 1 mps 767 mmHg 19%
    12:00 +4°C° 0 mm 1 mps 767 mmHg 18%
    13:00 +5°C° 0 mm 1 mps 766 mmHg 17%
    14:00 +7°C° 0 mm 1 mps 765 mmHg 16%
    15:00 +6°C° 0 mm 1 mps 765 mmHg 17%
    16:00 +6°C° 0 mm 1 mps 765 mmHg 18%
    17:00 +6°C° 0 mm 1 mps 765 mmHg 19%
    18:00 +5°C° 0 mm 1 mps 766 mmHg 21%
    19:00 +4°C° 0 mm 1 mps 767 mmHg 22%
    20:00 +3°C° 0 mm 1 mps 767 mmHg 24%
    21:00 +1°C° 0 mm 2 mps 768 mmHg 25%
    22:00 +1°C° 0 mm 2 mps 768 mmHg 26%
    23:00 +1°C° 0 mm 2 mps 769 mmHg 27%

    28 January, Monday

    Time Temperature Precipitation Wind Pressure Humidity
    00:00 -1°C° 0 mm 2 mps 769 mmHg 28%
    01:00 -1°C° 0 mm 2 mps 769 mmHg 28%
    02:00 -2°C° 0 mm 2 mps 769 mmHg 29%
    03:00 0°C° 0 mm 1 mps 769 mmHg 30%
    04:00 0°C° 0 mm 1 mps 769 mmHg 31%
    05:00 -1°C° 0 mm 1 mps 768 mmHg 31%
    06:00 -1°C° 0 mm 1 mps 769 mmHg 31%
    07:00 -1°C° 0 mm 1 mps 769 mmHg 31%
    08:00 -2°C° 0 mm 0 mps 769 mmHg 32%
    09:00 +1°C° 0 mm 1 mps 769 mmHg 28%
    10:00 +3°C° 0 mm 1 mps 769 mmHg 25%
    11:00 +3°C° 0 mm 2 mps 769 mmHg 22%
    12:00 +4°C° 0 mm 2 mps 768 mmHg 21%
    13:00 +4°C° 0 mm 3 mps 767 mmHg 19%
    14:00 +5°C° 0 mm 4 mps 766 mmHg 18%
    15:00 +5°C° 0 mm 3 mps 765 mmHg 18%
    16:00 +4°C° 0 mm 3 mps 765 mmHg 19%
    17:00 +5°C° 0 mm 2 mps 765 mmHg 19%
    18:00 +4°C° 0 mm 2 mps 765 mmHg 21%
    19:00 +3°C° 0 mm 2 mps 765 mmHg 23%
    20:00 +2°C° 0 mm 2 mps 765 mmHg 25%
    21:00 +2°C° 0 mm 2 mps 765 mmHg 26%
    22:00 +1°C° 0 mm 2 mps 765 mmHg 28%
    23:00 +2°C° 0 mm 1 mps 764 mmHg 29%

    29 January, Tuesday

    Time Temperature Precipitation Wind Pressure Humidity
    00:00 +1°C° 0 mm 1 mps 764 mmHg 30%
    01:00 +1°C° 0 mm 1 mps 764 mmHg 31%
    02:00 +1°C° 0 mm 1 mps 763 mmHg 33%
    03:00 0°C° 0 mm 1 mps 763 mmHg 33%
    04:00 0°C° 0 mm 1 mps 763 mmHg 33%
    05:00 -1°C° 0 mm 0 mps 762 mmHg 34%
    06:00 0°C° 0 mm 1 mps 763 mmHg 34%
    07:00 0°C° 0 mm 1 mps 763 mmHg 33%
    08:00 0°C° 0 mm 1 mps 763 mmHg 33%
    09:00 +1°C° 0 mm 0 mps 763 mmHg 29%
    10:00 +3°C° 0 mm 0 mps 763 mmHg 25%
    11:00 +5°C° 0 mm 0 mps 763 mmHg 21%
    12:00 +6°C° 0 mm 0 mps 763 mmHg 20%
    13:00 +8°C° 0 mm 1 mps 762 mmHg 19%
    14:00 +9°C° 0 mm 1 mps 761 mmHg 18%
    15:00 +9°C° 0 mm 1 mps 761 mmHg 19%
    16:00 +8°C° 0 mm 1 mps 762 mmHg 20%
    17:00 +7°C° 0 mm 2 mps 762 mmHg 20%
    18:00 +7°C° 0 mm 1 mps 762 mmHg 22%
    19:00 +6°C° 0 mm 1 mps 763 mmHg 23%
    20:00 +5°C° 0 mm 1 mps 763 mmHg 25%
    21:00 +4°C° 0 mm 1 mps 764 mmHg 26%
    22:00 +4°C° 0 mm 1 mps 764 mmHg 26%
    23:00 +3°C° 0 mm 2 mps 765 mmHg 27%
    Show more